Weather Roundup
Issued by NWS Springfield, MO

Home | Current Version | Previous Version | Text Only | Print | Product List | Glossary On
Versions: 1 2 3 4 5 6 7 8 9 10 11 12 13 14 15 16 17 18 19 20 21 22 23 24 25 26 27 28 29 30 31 32 33 34 35 36 37 38 39 40 41 42 43 44 45 46 47 48 49 50
000
NZUS99 KSGF 030807
HRRSGF

HOURLY WEATHER
NATIONAL WEATHER SERVICE SPRINGFIELD MO
200 AM CST FRI DEC 03 2021

......SGF CWA......

CITY           SKY/WX    TMP DP  RH WIND       PRES   REMARKS
SPRINGFIELD    CLEAR     50  40  68 S7        29.97F
JOPLIN         CLEAR     60  46  59 S13       29.97F
WEST PLAINS    CLEAR     52  38  58 W7        30.01S
ROLLA          CLEAR     53  38  56 S10       29.97F
OSAGE BEACH    CLEAR     46  36  68 CALM      29.97S
BRANSON        CLEAR     59  39  47 SW6       30.00F

......SURROUNDING SGF CWA......

CITY           SKY/WX    TMP DP  RH WIND       PRES   REMARKS
CHANUTE        CLEAR     54  43  66 S10       29.94F
PARSONS        CLEAR     52  43  71 S5        29.95F
COFFEYVILLE    CLEAR     50  42  74 S6        29.95F
EMPORIA        CLEAR     50  38  63 S9        29.90F
GROVE OK       CLEAR     43  39  87 CALM      30.00F
ROGERS AR      CLEAR     50  40  68 S6        30.02F
SILOAM SPRINGS CLEAR     54  43  66 S6        30.02S
HARRISON AR    CLEAR     53  37  54 S5        30.01F
NEAR YELLVILLE CLEAR     44  39  82 CALM      30.01S

......KANSAS AND MISSOURI......

CITY           SKY/WX    TMP DP  RH WIND       PRES   REMARKS
KANSAS CTY INT CLEAR     49  37  63 S9        29.89F
DOWNTOWN KC    CLEAR     44  37  76 CALM      29.89F
COLUMBIA       PTCLDY    50  37  61 SE6       29.94F
SEDALIA        CLEAR     55  40  56 SW12      29.94S
ST JOSEPH      CLEAR     38  35  89 S3        29.88F
ST LOUIS       PTCLDY    47  38  71 SE7       29.97F
SPIRIT OF STL  CLEAR     38  35  89 CALM      29.96F
KIRKSVILLE     CLEAR     42  34  73 E7        29.93F
WICHITA        CLEAR     47  38  71 S3        29.91F
TOPEKA         CLEAR     43  37  79 CALM      29.89F
OLATHE         CLEAR     51  40  65 SW6       29.90F

......TENNESSEE......

CITY           SKY/WX    TMP DP  RH WIND       PRES   REMARKS
MEMPHIS        CLEAR     53  47  79 S3        30.05R
NASHVILLE      CLEAR     48  40  73 S3        30.07S

......ARKANSAS.......

CITY           SKY/WX    TMP DP  RH WIND       PRES   REMARKS
FAYETTEVILLE   CLEAR     41  37  86 CALM      30.02S
FT SMITH       PTCLDY    46  42  86 CALM      30.02S
LITTLE ROCK    MOCLDY    49  45  86 CALM      30.04F

......OKLAHOMA.......

CITY           SKY/WX    TMP DP  RH WIND       PRES   REMARKS
TULSA          PTCLDY    55  46  71 SE6       29.95F
PONCA CITY     CLEAR     40  34  79 CALM      29.94F
MCALESTER      PTCLDY    62  55  77 S9        30.00F
OKLAHOMA CITY  PTCLDY    48  41  76 S7        29.95F

......IOWA............

CITY           SKY/WX    TMP DP  RH WIND       PRES   REMARKS
DES MOINES     CLEAR     42  28  57 E9        29.93F
QUAD CITIES    PTCLDY    32  28  85 SE3       30.01S

......ILLINOIS........

CITY           SKY/WX    TMP DP  RH WIND       PRES   REMARKS
QUINCY         CLEAR     43  31  62 E8        29.97S
CHICAGO        CLOUDY    44  29  55 N7        30.04R




USA.gov is the U.S. government's official web portal to all federal, state and local government web resources and services.